Location: ????????
(37.6846°N, 24.0673°E)
Time: 14:22:14
(UTC+00:00)

CZ-4B R/B - Pass Details

Date: 14 July 2020
Orbit: 702 x 803 km, 98.8° (Epoch: 03 August)

Event Time Altitude Azimuth Distance (km) Brightness Sun altitude
Rises 00:41:07 0° 9° (N) 3,230 7.8 -23.1°
Reaches altitude 10° 00:43:28 10° 6° (N) 2,285 6.8 -22.9°
Maximum altitude 00:48:24 61° 287° (WNW) 834 3.5 -22.3°
Enters shadow 00:49:15 53° 243° (WSW) 906 3.5 -22.2°
